RH
33 41 39 47 57 66 68 69 73 71 64 65 66 77 81 75 68 74 65 86 93 92 81 62 48 39 35 32 30 28 27 27 24 29 27 24 25 26 27 29 31 35 38 35 42
37 42 41 53 61 62 70 85 80 64 69 67 71 70 70 73 76 76 64 76 97 93 89 73 47 38 39 36 28 29 28 26 25 26 26 26 25 25 25 28 32 32 32 32 38
37 39 44 57 58 55 70 88 89 79 60 69 64 67 70 75 77 68 68 76 77 85 85 74 49 39 44 34 28 28 27 26 24 27 29 26 24 24 26 28 31 29 31 35 35
41 41 48 57 54 56 74 91 90 86 70 63 60 63 70 73 76 60 72 66 68 81 87 79 51 47 43 32 27 26 27 26 24 27 30 25 22 24 25 25 27 29 31 32 32
40 46 52 50 49 57 71 86 91 91 84 69 65 62 68 73 68 57 80 73 87 85 88 80 48 52 42 31 26 26 27 26 23 26 28 24 22 23 25 23 26 31 33 31 27
41 44 48 49 49 57 65 78 87 91 92 81 74 63 64 68 60 59 78 84 95 84 81 69 60 56 38 31 26 27 26 25 22 22 23 22 22 25 24 23 26 29 30 29 25
39 42 45 46 49 54 61 72 82 86 92 92 76 61 61 61 58 64 82 93 90 81 74 63 68 49 37 30 27 26 25 26 22 22 22 23 24 24 23 24 25 24 23 22 20
37 42 43 45 45 51 57 68 77 84 91 90 75 64 66 63 58 71 79 86 82 78 66 73 62 47 35 28 27 27 27 29 27 24 21 22 23 22 21 22 23 22 20 19 18
34 39 40 41 43 45 56 61 68 76 83 87 87 74 67 64 66 74 78 78 78 69 75 69 54 41 31 28 29 30 32 30 28 26 24 21 18 19 19 19 20 20 19 18 17
33 34 39 40 38 41 54 62 64 70 79 84 81 72 69 75 76 70 75 70 72 68 82 53 45 37 30 29 31 28 32 30 27 26 23 20 18 18 18 18 17 17 17 16 15
30 31 36 37 38 40 47 58 56 67 74 84 89 75 76 70 71 67 69 72 66 74 66 46 46 41 33 30 26 27 28 28 27 24 20 19 18 16 16 17 17 16 16 16 15
27 29 32 38 39 40 46 57 58 67 69 76 81 76 74 73 69 71 75 74 68 70 45 41 41 35 31 28 27 26 26 26 25 23 19 22 20 17 16 16 15 15 15 14 14
24 28 30 39 45 47 49 50 55 57 63 68 77 78 79 72 74 90 76 69 65 49 45 46 38 31 29 29 27 30 25 24 22 23 24 22 18 15 16 18 16 16 16 15 14
22 23 28 32 40 42 48 51 53 56 61 60 59 69 74 67 71 74 69 61 45 43 48 45 36 33 31 32 29 27 28 25 24 22 24 24 27 14 16 19 17 17 16 16 16
33 17 22 25 32 38 43 44 50 56 69 56 53 51 53 54 56 56 51 45 44 43 40 40 36 33 34 34 31 29 27 27 27 27 25 24 28 16 19 18 17 17 17 17 17
44 29 17 21 24 30 34 40 45 52 60 58 54 48 41 40 40 38 36 36 38 35 35 36 33 33 33 31 29 28 27 28 30 27 30 29 30 25 23 18 18 19 20 19 18
41 44 24 18 22 26 32 38 45 54 48 50 51 47 46 41 37 37 37 35 34 33 32 30 31 33 32 29 28 27 25 35 30 37 32 35 38 26 20 22 21 23 22 21 20
38 44 44 19 23 29 34 35 47 48 45 43 45 45 47 44 40 37 35 37 34 30 33 32 29 32 33 32 28 30 26 36 23 35 40 36 38 26 22 21 24 22 21 22 23
34 38 45 40 24 23 27 40 44 45 45 41 36 38 42 43 43 42 43 44 41 37 35 35 36 33 35 35 33 33 36 34 45 47 43 36 26 20 21 22 23 24 24 25 24
28 32 35 40 39 29 25 35 36 38 40 41 40 37 35 35 34 35 40 44 42 41 38 39 40 38 38 36 36 33 33 34 38 28 34 33 28 32 28 24 26 27 26 24 23
25 27 31 30 34 39 50 32 29 29 32 33 35 35 37 38 36 36 36 33 33 34 35 34 32 38 36 32 30 35 34 36 33 36 39 34 33 25 26 26 26 25 23 21 21
24 29 27 27 31 38 45 48 41 27 24 28 29 29 30 32 35 36 37 38 36 34 34 35 33 41 30 34 32 31 34 36 41 36 48 41 38 22 27 27 26 23 21 21 24
24 26 28 26 31 34 36 37 40 46 51 42 27 25 26 26 24 26 28 29 29 33 33 32 33 39 30 36 38 39 37 34 37 39 43 42 31 22 27 23 21 23 25 27 30
28 32 29 29 33 34 34 35 34 38 41 43 50 51 40 29 26 28 33 34 32 27 26 25 31 26 27 26 35 37 36 35 32 44 34 31 19 20 28 27 27 29 29 27 26
28 34 34 36 34 36 36 36 38 37 36 40 41 41 41 46 49 49 45 39 30 26 27 27 30 33 32 30 30 30 31 34 38 31 32 21 24 18 20 24 22 24 24 21 20
30 33 35 36 36 35 35 37 37 36 37 37 39 40 44 43 41 41 42 48 48 54 49 43 36 39 34 29 32 32 28 27 28 27 30 28 26 24 24 25 24 23 26 26 28
34 34 34 37 38 37 37 37 36 36 36 37 37 37 38 39 39 39 42 43 44 46 48 49 51 54 49 51 48 43 38 39 42 49 50 50 41 41 42 44 43 37 37 35 33